Flag for U.S.A. Weather past 2 weeks in Vincennes, Indiana, U.S.A.

Now
32 °F

Overcast.


Feels Like: 26 °F
Forecast: 25 / 42 °F
Wind: 7 mph from North

Location: Lawrenceville-Vincennes International Airport

Current Time: Jan 27, 2015 at 9:33:41 PM

Latest Report: Jan 27, 2015 at 8:53 PM


Visibility: 9 mi

Pressure: 30.27 "Hg

Humidity: 85%

Dew point: 28 °F

Location of VincennesLocation

Historic Weather in Vincennes — Graph

°F

Vincennes temperature yesterday

Maximum temperature yesterday: 30 °F (at 4:53 AM)
Minimum temperature yesterday: 28 °F (at 4:53 PM)
Average temperature yesterday: 29 °F

Past Weeks' High & Low Weather Summary

 TemperatureHumidityPressure
High53 °F (Jan 17, 2:53 PM)100% (Jan 25, 5:53 PM)30.64 "Hg (Jan 25, 5:53 PM)
Low16 °F (Jan 13, 11:53 PM)50% (Jan 15, 1:53 PM)29.61 "Hg (Jan 25, 1:53 PM)
Average33 °F79%30.11 "Hg
* Reported Jan 12 7:53 PM — Jan 27 7:53 PM, Vincennes, Weather by CustomWeather, © 2014

Note: Actual official high and low records may vary slightly from our data, if they occured in-between our weather recording intervals... More about our weather records

Advertising

Vincennes weather history for previous 24 hours

 ConditionsComfort  
Time TempWeatherWind HumidityBarometerVisibility
7:53 PM
Jan 27
32 °FOvercast.6 mph85%30.26 "Hg9 mi
6:53 PM32 °FOvercast.7 mph88%30.24 "Hg9 mi
5:53 PM33 °FMostly cloudy.8 mph85%30.23 "Hg7 mi
4:53 PM33 °FMostly cloudy.7 mph85%30.20 "Hg9 mi
3:53 PM33 °FOvercast.7 mph88%30.19 "Hg8 mi
2:53 PM33 °FFog.9 mph88%30.16 "Hg6 mi
1:53 PM33 °FOvercast.7 mph88%30.15 "Hg7 mi
12:53 PM33 °FMostly cloudy.8 mph88%30.15 "Hg8 mi
11:53 AM33 °FMore clouds than sun.9 mph88%30.14 "Hg7 mi
10:53 AM32 °FIce fog.7 mph92%30.12 "Hg4 mi
9:53 AM31 °FIce fog.6 mph100%30.09 "Hg1 mi
9:02 AM31 °FIce fog.6 mph96%30.06 "Hg2 mi
8:53 AM31 °FIce fog.6 mph96%30.06 "Hg2 mi
7:53 AM31 °FIce fog.5 mph96%30.03 "Hg1 mi
6:53 AM30 °FIce fog.5 mph100%30.00 "Hg2 mi
5:53 AM30 °FIce fog.3 mph96%29.97 "Hg2 mi
4:53 AM30 °FIce fog.No wind96%29.94 "Hg2 mi
3:53 AM30 °FIce fog.No wind100%29.93 "Hg2 mi
2:53 AM30 °FIce fog.No wind96%29.94 "Hg2 mi
1:53 AM30 °FIce fog.No wind96%29.93 "Hg3 mi
12:53 AM30 °FIce fog.6 mph96%29.93 "Hg3 mi
11:53 PM
Jan 26
29 °FIce fog.6 mph96%29.94 "Hg2 mi
10:53 PM29 °FIce fog.6 mph93%29.95 "Hg3 mi
10:02 PM29 °FIce fog.7 mph93%29.95 "Hg5 mi
9:53 PM29 °FIce fog.6 mph93%29.95 "Hg6 mi
Weather by CustomWeather, © 2014

See weather overviewHow to use our weather pages